User: anonymous   Login
Location: NJAA Observatory
(40.6819°N, 74.8979°W)
Time: 16:55:36
(UTC-04:00)
Language:

Meteor 1-28 Rocket - Orbit

View from above orbital plane
View from above orbital plane
View from above satellite
View from above satellite

Ground track
Ground track

The orbit data is extracted from the following two-line orbital elements,

1 10114U 77057B   18113.52349163  .00000358  00000-0  21291-4 0  9995
2 10114  97.2172 285.5722 0012758 319.9434  40.0859 15.17014119230599
Epoch (UTC): 23 April 2018 12:33:49
Eccentricity: 0.0012758
inclination: 97.2172°
perigee height: 506 km
apogee height: 523 km
right ascension of ascending node: 285.5722°
argument of perigee: 319.9434°
revolutions per day: 15.17014119
mean anomaly at epoch: 40.0859°
orbit number at epoch: 23059

The dashed part of the orbit path shows where the satellite is in the earth's shadow,  

DLR